Location: Unspecified
(17.6330°N, 0.0000°E)
Time: 21:22:56
(UTC+00:00)

OTV 5 (USA 277) - Visible Passes

Search period start: 22 October 2019 00:00
Search period end: 01 November 2019 00:00
Orbit: 310 x 324 km, 54.5° (Epoch: 17 October)

Date Brightness Start Highest point End Pass type
(mag) Time Alt. Az. Time Alt. Az. Time Alt. Az.
22 Oct ? 18:39:51 10° SSE 18:39:54 10° SSE 18:39:54 10° SSE visible
23 Oct ? 18:53:25 10° SSW 18:55:06 34° SSW 18:55:06 34° SSW visible
24 Oct ? 04:33:52 22° NNE 04:34:31 25° NE 04:36:50 10° ESE visible
24 Oct ? 19:08:38 10° W 19:10:14 18° WNW 19:10:14 18° WNW visible
25 Oct ? 04:49:03 58° SW 04:49:03 58° SW 04:51:41 10° SSE visible
25 Oct ? 17:48:30 10° S 17:50:59 34° ESE 17:53:29 10° NE visible
26 Oct ? 05:04:15 11° SW 05:04:15 11° SW 05:04:42 10° SSW visible
26 Oct ? 18:02:55 10° SW 18:05:28 38° NW 18:08:01 10° NNE visible
27 Oct ? 18:19:47 10° NW 18:20:04 10° NW 18:20:20 10° NW visible
